{"data":{"norad_id":62625,"epoch":"2026-09-19T11:44:42.436320Z","epoch_age_seconds":101801,"freshness":"FRESH","line1":"1 62625U 25009S   26262.48938005  .00007490  00000+0  25346-3 0  9994","line2":"2 62625  97.3964 343.9657 0003347 357.0665   3.0555 15.30890313 93325","mean_motion":15.30890313,"eccentricity":0.0003347,"inclination_deg":97.3964,"raan_deg":343.9657,"arg_perigee_deg":357.0665,"mean_anomaly_deg":3.0555,"bstar":0.00025346,"rev_number":9332,"period_min":94.062911481758,"perigee_km":470.86156645593,"apogee_km":475.44782111575,"semimajor_km":6851.2916937858,"source":"CELESTRAK","updated_at":"2026-09-20T09:00:34.717882Z"}}